Location: Burtsch�tz
(51.0528°N, 12.1764°E)
Time: 07:11:50
(UTC+00:00)

Cosmos 1354 Rocket - Pass Details

Date: 29 October 2020
Orbit: 764 x 783 km, 74.0° (Epoch: 01 December)

Event Time Altitude Azimuth Distance (km) Brightness Sun altitude
Rises 17:27:15 0° 336° (NNW) 3,248 7.5 -15.7°
Reaches altitude 10° 17:29:38 10° 338° (NNW) 2,320 6.7 -16.1°
Maximum altitude 17:34:55 77° 64° (ENE) 798 3.9 -16.9°
Drops below altitude 10° 17:40:11 10° 151° (SSE) 2,316 6.2 -17.7°
Enters shadow 17:41:03 - 152° (SSE) 2,653 6.5 -17.9°
